Overview Statistics Trail Chart Weather Telemetry Raw packets
 

This is the latest recevied weather packets stored in our database for station/object WX5RP. If no packets are shown the sender has not sent any weather packets the latest 10 day(s).

<< 1 2 3 4 5 6 7 >>
Time Temp. Humidity Pressure Rain* Wind** Luminosity Snow
1777936046 21.11° C 31% 1010.1 hPa 0 mm - 178 W/m² -
1777935317 23.33° C 27% 1010.6 hPa 0 mm - 880 W/m² -
1777934716 23.89° C 33% 1010.5 hPa 0 mm - 265 W/m² -
1777934116 24.44° C 28% 1010.7 hPa 0 mm - 943 W/m² -
1777933517 22.78° C 31% 1011.1 hPa 0 mm - 476 W/m² -
1777932916 22.22° C 33% 1010.8 hPa 0 mm - 391 W/m² -
1777932317 23.89° C 29% 1010.8 hPa 0 mm - 341 W/m² -
1777931716 25° C 25% 1011.2 hPa 0 mm - 1060 W/m² -
1777931117 23.33° C 30% 1011.6 hPa 0 mm - 1024 W/m² -
1777930516 22.78° C 31% 1011.9 hPa 0 mm - 214 W/m² -
1777929917 23.33° C 30% 1011.7 hPa 0 mm - 235 W/m² -
1777929316 24.44° C 25% 1011.9 hPa 0 mm - 1080 W/m² -
1777928717 24.44° C 26% 1011.1 hPa 0 mm - 1067 W/m² -
1777928116 22.22° C 28% 1010.9 hPa 0 mm - 882 W/m² -
1777927517 23.33° C 29% 1011.2 hPa 0 mm - 1130 W/m² -
1777926916 22.22° C 28% 1011.8 hPa 0 mm - 262 W/m² -
1777926316 23.33° C 26% 1011.9 hPa 0 mm - 237 W/m² -
1777925716 23.33° C 26% 1012.2 hPa 0 mm - 214 W/m² -
1777925116 23.89° C 24% 1011.6 hPa 0 mm - 1098 W/m² -
1777924516 23.89° C 28% 1012.2 hPa 0 mm - 1094 W/m² -
1777923916 22.78° C 27% 1011.6 hPa 0 mm - 1011 W/m² -
1777923316 22.78° C 32% 1011.9 hPa 0 mm - 992 W/m² -
1777922717 22.78° C 30% 1012.1 hPa 0 mm - 788 W/m² -
1777922116 22.78° C 30% 1012.1 hPa 0 mm - 990 W/m² -
1777921516 22.22° C 29% 1012.2 hPa 0 mm - 1016 W/m² -

* Rain latest hour (hover to see other rain measurements)
** Current wind speed in m/s (hover to see current wind gust speed)